DW6650 Weather Reports


Display with metric or nautical units.
time (UTC)temp
F
wind
direction
speed
MPH
gust
MPH
rain 1hr
in
rain 24hr
in
rain mn
in
humidity
%
barometer
mb
20260504190516 78 90 1.0 5.0 0.00 0.00 0.00 34 1016.7
20260504190016 77 135 1.0 3.0 0.00 0.00 0.00 34 1016.8
20260504185536 77 113 1.0 3.0 0.00 0.00 0.00 33 1016.9
20260504185019 77 113 1.0 3.0 0.00 0.00 0.00 31 1017.0
20260504184516 77 90 0.0 1.0 0.00 0.00 0.00 30 1017.1
20260504184016 77 90 0.0 3.0 0.00 0.00 0.00 31 1017.1
20260504183536 77 90 1.0 6.0 0.00 0.00 0.00 36 1017.2
20260504183036 76 203 0.0 2.0 0.00 0.00 0.00 34 1017.2
20260504182516 76 180 1.0 2.0 0.00 0.00 0.00 34 1017.3
20260504182016 76 203 1.0 2.0 0.00 0.00 0.00 36 1017.3
20260504181516 76 180 0.0 3.0 0.00 0.00 0.00 37 1017.3
20260504181016 76 203 0.0 2.0 0.00 0.00 0.00 36 1017.3
20260504180516 76 113 1.0 3.0 0.00 0.00 0.00 38 1017.3
20260504180016 76 180 1.0 5.0 0.00 0.00 0.00 36 1017.4
20260504175516 76 225 0.0 3.0 0.00 0.00 0.00 38 1017.4
20260504175016 75 203 1.0 2.0 0.00 0.00 0.00 39 1017.5
20260504174517 75 45 0.0 2.0 0.00 0.00 0.00 39 1017.5
20260504174016 75 90 0.0 5.0 0.00 0.00 0.00 38 1017.7
20260504173516 75 113 1.0 4.0 0.00 0.00 0.00 37 1017.7
20260504173015 75 180 0.0 2.0 0.00 0.00 0.00 38 1017.7
20260504172538 75 113 1.0 4.0 0.00 0.00 0.00 40 1017.8
20260504172017 74 254 0.0 0.0 0.00 0.00 0.00 38 1017.8
20260504171537 75 90 1.0 5.0 0.00 0.00 0.00 37 1017.8
20260504171017 75 135 0.0 2.0 0.00 0.00 0.00 40 1017.9
20260504170538 75 315 1.0 4.0 0.00 0.00 0.00 39 1017.9
20260504151017 72 225 2.0 5.0 0.00 0.00 0.00 44 1019.3
20260504150517 71 270 1.0 4.0 0.00 0.00 0.00 42 1019.4
20260504150158 71 248 1.0 4.0 0.00 0.00 0.00 38 1019.5
20260504141019 69 248 1.0 4.0 0.00 0.00 0.00 64 1019.6
20260504140517 69 23 0.0 2.0 0.00 0.00 0.00 62 1019.5
20260504130517 57 248 1.0 2.0 0.00 0.00 0.00 80 1019.4
20260504110516 45 253 0.0 0.0 0.00 0.00 0.00 93 1018.6
20260504100536 46 248 0.0 2.0 0.00 0.00 0.00 93 1018.7
20260504081536 47 257 0.0 0.0 0.00 0.00 0.00 88 1018.7
20260504081016 47 257 0.0 0.0 0.00 0.00 0.00 88 1018.6
20260504080516 48 248 0.0 1.0 0.00 0.00 0.00 87 1018.6
20260504050517 52 257 0.0 0.0 0.00 0.00 0.00 81 1019.3
20260504045517 52 257 0.0 0.0 0.00 0.00 0.00 81 1019.3
20260504045017 52 257 0.0 0.0 0.00 0.00 0.00 81 1019.3
20260504044538 52 257 0.0 0.0 0.00 0.00 0.00 79 1019.2
20260504044017 52 257 0.0 0.0 0.00 0.00 0.00 80 1019.2
20260504043517 52 257 0.0 0.0 0.00 0.00 0.00 79 1019.2
20260504043017 53 257 0.0 0.0 0.00 0.00 0.00 79 1019.3
20260504042517 53 257 0.0 0.0 0.00 0.00 0.00 79 1019.3
20260504042017 53 257 0.0 0.0 0.00 0.00 0.00 79 1019.2
20260504041519 53 257 0.0 0.0 0.00 0.00 0.00 78 1019.2
20260504041017 53 257 0.0 0.0 0.00 0.00 0.00 79 1019.2
20260504040517 53 257 0.0 0.0 0.00 0.00 0.00 77 1019.1
20260504040017 53 257 0.0 0.0 0.00 0.00 0.00 77 1019.1
20260504035516 53 257 0.0 0.0 0.00 0.00 0.00 76 1019.0
20260504035016 53 257 0.0 0.0 0.00 0.00 0.00 76 1019.1
20260504034516 54 257 0.0 0.0 0.00 0.00 0.00 76 1019.2
20260504034036 54 257 0.0 0.0 0.00 0.00 0.00 74 1019.2
20260504033516 54 257 0.0 0.0 0.00 0.00 0.00 73 1019.2
20260504033016 54 257 0.0 0.0 0.00 0.00 0.00 73 1019.2
20260504032516 54 257 0.0 0.0 0.00 0.00 0.00 73 1019.1
20260504032016 54 257 0.0 0.0 0.00 0.00 0.00 71 1019.0
20260504031516 55 257 0.0 0.0 0.00 0.00 0.00 72 1019.0
20260504031015 55 257 0.0 0.0 0.00 0.00 0.00 70 1019.0
20260504030516 55 257 0.0 0.0 0.00 0.00 0.00 67 1018.9
20260504030017 55 257 0.0 0.0 0.00 0.00 0.00 67 1019.0
20260504025516 55 257 0.0 0.0 0.00 0.00 0.00 65 1019.0
20260504025016 55 257 0.0 0.0 0.00 0.00 0.00 70 1019.0
20260504024516 56 257 0.0 0.0 0.00 0.00 0.00 66 1018.9
20260504024016 56 257 0.0 0.0 0.00 0.00 0.00 66 1018.9
20260504023517 56 257 0.0 0.0 0.00 0.00 0.00 68 1018.8
20260504023058 56 257 0.0 0.0 0.00 0.00 0.00 68 1018.7
20260504022517 56 257 0.0 0.0 0.00 0.00 0.00 67 1018.7
20260504022017 56 257 0.0 0.0 0.00 0.00 0.00 68 1018.7
20260504021517 57 257 0.0 0.0 0.00 0.00 0.00 69 1018.6
20260504021018 57 257 0.0 0.0 0.00 0.00 0.00 66 1018.5
20260504020538 57 257 0.0 0.0 0.00 0.00 0.00 66 1018.4
20260504020017 57 257 0.0 0.0 0.00 0.00 0.00 63 1018.4
20260504015517 58 257 0.0 0.0 0.00 0.00 0.00 63 1018.3
20260504015018 58 257 0.0 0.0 0.00 0.00 0.00 65 1018.3
20260504014517 58 257 0.0 0.0 0.00 0.00 0.00 67 1018.2
20260504014017 59 257 0.0 0.0 0.00 0.00 0.00 64 1018.1
20260504013517 59 257 0.0 0.0 0.00 0.00 0.00 62 1018.2
20260504013017 59 257 0.0 0.0 0.00 0.00 0.00 61 1018.2
20260504012518 60 257 0.0 0.0 0.00 0.00 0.00 60 1018.1
20260504012018 60 257 0.0 0.0 0.00 0.00 0.00 61 1018.0
20260504011517 60 257 0.0 0.0 0.00 0.00 0.00 59 1017.9
20260504011017 61 257 0.0 0.0 0.00 0.00 0.00 60 1017.8
20260504010517 61 257 0.0 0.0 0.00 0.00 0.00 57 1017.8
20260504010017 61 257 0.0 0.0 0.00 0.00 0.00 57 1017.7
20260504005517 62 257 0.0 0.0 0.00 0.00 0.00 56 1017.7
20260504005017 62 257 0.0 0.0 0.00 0.00 0.00 54 1017.6
20260504004517 63 257 0.0 0.0 0.00 0.00 0.00 53 1017.6
20260504004017 63 257 0.0 0.0 0.00 0.00 0.00 52 1017.5
20260504003517 64 257 0.0 0.0 0.00 0.00 0.00 49 1017.5
20260504003017 65 257 0.0 0.0 0.00 0.00 0.00 48 1017.4
20260504002517 65 257 0.0 0.0 0.00 0.00 0.00 48 1017.4
20260504002017 66 257 0.0 0.0 0.00 0.00 0.00 47 1017.4
20260504001538 66 257 0.0 0.0 0.00 0.00 0.00 47 1017.4
20260504001017 67 257 0.0 0.0 0.00 0.00 0.00 46 1017.4
20260504000517 68 257 0.0 0.0 0.00 0.00 0.00 45 1017.4
20260504000017 69 257 0.0 0.0 0.00 0.00 0.00 44 1017.4
20260503235522 70 257 0.0 0.0 0.00 0.00 0.00 43 1017.3
20260503235017 71 257 0.0 0.0 0.00 0.00 0.00 41 1017.4
20260503234517 72 257 0.0 0.0 0.00 0.00 0.00 40 1017.4
20260503234017 73 257 0.0 0.0 0.00 0.00 0.00 40 1017.4
20260503233517 74 257 0.0 0.0 0.00 0.00 0.00 40 1017.5
20260503233017 75 248 0.0 1.0 0.00 0.00 0.00 41 1017.4
20260503232517 75 248 2.0 5.0 0.00 0.00 0.00 32 1017.5
20260503232017 75 248 1.0 3.0 0.00 0.00 0.00 32 1017.4
20260503231517 75 248 1.0 3.0 0.00 0.00 0.00 32 1017.5
20260503231017 75 248 1.0 4.0 0.00 0.00 0.00 31 1017.5
20260503230517 75 248 1.0 5.0 0.00 0.00 0.00 31 1017.5
20260503230038 75 248 1.0 3.0 0.00 0.00 0.00 33 1017.5
20260503225517 75 248 1.0 5.0 0.00 0.00 0.00 32 1017.5
20260503225017 75 248 2.0 7.0 0.00 0.00 0.00 31 1017.5
20260503224537 75 248 2.0 6.0 0.00 0.00 0.00 32 1017.5
20260503224017 75 225 2.0 6.0 0.00 0.00 0.00 32 1017.4
20260503223517 75 225 2.0 9.0 0.00 0.00 0.00 30 1017.4
20260503223017 75 225 0.0 4.0 0.00 0.00 0.00 32 1017.4
20260503222537 75 248 1.0 5.0 0.00 0.00 0.00 32 1017.5
20260503222017 75 68 2.0 7.0 0.00 0.00 0.00 31 1017.5
20260503221538 76 248 2.0 7.0 0.00 0.00 0.00 31 1017.6
20260503221037 76 225 1.0 3.0 0.00 0.00 0.00 32 1017.6
20260503220517 75 225 2.0 6.0 0.00 0.00 0.00 31 1017.6
20260503220017 75 248 1.0 5.0 0.00 0.00 0.00 33 1017.6
20260503215519 75 248 2.0 6.0 0.00 0.00 0.00 32 1017.7
20260503215039 74 248 2.0 9.0 0.00 0.00 0.00 33 1017.8
20260503214517 74 248 3.0 7.0 0.00 0.00 0.00 31 1017.8
20260503214037 74 248 2.0 8.0 0.00 0.00 0.00 32 1017.8
20260503213517 75 68 1.0 6.0 0.00 0.00 0.00 34 1017.8
20260503213022 75 248 2.0 6.0 0.00 0.00 0.00 31 1017.8
20260503212517 75 248 1.0 5.0 0.00 0.00 0.00 33 1017.9
20260503212017 75 248 1.0 4.0 0.00 0.00 0.00 33 1017.9
20260503211537 75 248 2.0 6.0 0.00 0.00 0.00 33 1017.9
20260503211037 75 203 1.0 6.0 0.00 0.00 0.00 34 1018.0
20260503210517 75 203 2.0 10.0 0.00 0.00 0.00 34 1018.0
20260503210016 74 248 1.0 4.0 0.00 0.00 0.00 34 1017.9
20260503205517 73 90 0.0 3.0 0.00 0.00 0.00 35 1018.0
20260503205017 73 248 2.0 9.0 0.00 0.00 0.00 35 1018.0
20260503204517 73 135 1.0 5.0 0.00 0.00 0.00 36 1018.0
20260503204016 73 203 2.0 9.0 0.00 0.00 0.00 34 1018.0
20260503203516 73 203 1.0 4.0 0.00 0.00 0.00 35 1018.1
20260503203017 73 225 3.0 7.0 0.00 0.00 0.00 32 1018.1
20260503202517 73 225 1.0 6.0 0.00 0.00 0.00 34 1018.1
20260503202037 73 248 1.0 4.0 0.00 0.00 0.00 36 1018.1
20260503201517 73 248 1.0 5.0 0.00 0.00 0.00 34 1018.2
20260503201037 72 203 0.0 4.0 0.00 0.00 0.00 35 1018.3
20260503200516 72 203 2.0 7.0 0.00 0.00 0.00 32 1018.4
20260503200016 72 248 2.0 9.0 0.00 0.00 0.00 36 1018.4
20260503195537 72 248 3.0 9.0 0.00 0.00 0.00 32 1018.5
20260503195037 72 248 1.0 5.0 0.00 0.00 0.00 34 1018.6
20260503194517 72 248 3.0 11.0 0.00 0.00 0.00 31 1018.7
20260503194018 72 225 3.0 12.0 0.00 0.00 0.00 35 1018.8
20260503193536 71 248 2.0 6.0 0.00 0.00 0.00 34 1018.8
20260503193037 71 270 2.0 5.0 0.00 0.00 0.00 33 1018.9
20260503192556 71 248 2.0 7.0 0.00 0.00 0.00 36 1019.0
20260503192016 71 270 2.0 6.0 0.00 0.00 0.00 34 1019.1
20260503191516 71 225 1.0 4.0 0.00 0.00 0.00 32 1019.2
20260503191016 71 203 3.0 9.0 0.00 0.00 0.00 33 1019.3